[[{"header":{"parameterUnit":"m.s-1","parameterCategory":1,"la1":30.2991,"la2":30.254,"lo1":-89.0895,"lo2":-89.0444,"dy":0.0017,"dx":0.0017,"nx":28,"ny":28,"refTime":"2025-03-19T03:00:00:Z","depth":0,"parameterNumber":2,"parameterNumberName":"U-component_of_WINDS"},"data":[0,0,0,0,0,0,0,0,0,0,0,0,0,0,0,0,0,0,0,0,0,0,0,0,0,0,0,0,0,0,0,0,0,0,0,0,0,0,0,0,0,0,0,0,0,0,0,0,0,0,0,0,0,0,0,0,0,0,3.8933,3.8933,0,3.8941,3.8941,3.8941,3.8842,3.8839,3.8836,3.8834,3.8845,3.8848,3.8851,0,0,0,0,0,0,0,0,0,0,0,0,0,3.8834,3.8836,3.8933,3.8933,3.8933,3.8941,3.8941,3.8941,3.8842,3.8839,3.8835,3.8832,3.8845,3.8848,3.8851,0,0,0,0,0,0,0,0,0,0,0,0,0,3.8863,3.8837,3.8933,3.8884,3.888,3.8941,3.8941,3.8941,3.8843,3.8839,3.8835,3.8831,3.8843,3.8848,3.8852,3.896,0,0,3.8865,3.8867,0,0,0,0,0,0,0,0,3.8862,3.8867,3.8891,3.8888,3.8883,3.8886,3.891,3.8948,3.8844,3.8857,3.8833,3.8829,3.8863,3.8865,3.8876,3.8961,3.8961,3.8865,3.8868,3.887,3.8871,0,0,0,0,0,0,0,3.886,3.8866,3.8936,3.8892,3.8887,3.8863,3.8863,3.8917,3.8883,3.8856,3.8848,3.885,3.8859,3.8872,3.8875,3.8962,3.8865,3.8869,3.8872,3.8873,3.9135,3.9139,0,0,0,0,0,0,3.8864,3.8865,3.8936,3.8936,3.8862,3.8868,3.8868,3.8889,3.8882,3.8877,3.8854,3.8846,3.8866,3.887,3.8875,3.9,3.887,3.8874,3.8876,3.9131,3.9136,3.9141,0,0,0,0,0,0,3.8862,3.8871,3.8935,3.8899,3.8905,3.8874,3.8899,3.8892,3.8903,3.8881,3.8874,3.8873,3.8863,3.8869,3.8939,3.8999,3.8876,3.888,3.9126,3.9132,3.9139,3.9253,0,0,0,0,0,0,3.886,3.8871,3.8911,3.89,3.8907,3.8999,3.8903,3.8895,3.8911,3.89,3.8896,3.8892,3.8861,3.8934,3.8944,3.9003,3.8883,3.912,3.9129,3.9136,3.9243,3.9262,3.9279,0,0,0,0,0,3.8856,3.8944,3.8914,3.8923,3.8957,3.9003,3.9007,3.8968,3.8916,3.8957,3.8942,3.8892,3.8992,3.8942,3.8952,3.9014,3.9116,3.9126,3.9136,3.9236,3.9259,3.9278,0,0,0,0,0,0,3.8964,3.8942,3.8908,3.8994,3.9001,3.8986,3.9035,3.8994,3.9016,3.9005,3.8957,3.8957,3.9035,3.9032,3.8976,3.9118,3.9045,3.9057,3.9117,3.9139,3.9156,3.9155,3.8887,0,0,0,0,0,3.8998,3.9036,3.9015,3.9093,3.9098,3.9067,3.9085,3.9055,3.906,3.9063,3.9053,3.9061,3.9093,3.9116,3.9145,3.9243,3.924,3.9291,3.9308,3.9323,3.9334,3.9384,3.9406,3.9173,3.9173,3.9173,0,0,3.9069,3.9061,3.9088,3.9115,3.9116,3.9157,3.907,3.9117,3.9147,3.907,3.9135,3.9128,3.9134,3.9218,3.9255,3.9218,3.9397,3.9335,3.9347,3.935,3.9396,3.9418,3.9438,3.918,3.9179,3.9178,0,0,3.9217,3.9216,3.928,3.9283,3.9286,3.9264,3.928,3.9271,3.9263,3.9327,3.927,3.9306,3.9364,3.9369,3.938,3.9531,3.9485,3.9542,3.9633,3.9683,3.9701,3.9717,3.9769,3.9789,3.9553,3.9554,3.9554,0,3.9304,3.9362,3.9319,3.9369,3.9383,3.9314,3.9379,3.9384,3.9398,3.9409,3.9367,3.9437,3.9436,3.952,3.9556,3.9568,3.9584,3.9541,3.9702,3.9717,3.9732,3.9781,3.9801,3.956,3.9559,3.9559,3.9558,0,3.9469,3.9511,3.9563,3.9575,3.9594,3.9652,3.9618,3.9643,3.9611,3.9594,3.966,3.9657,3.9683,3.9701,3.9671,3.9781,3.9757,3.971,3.9635,3.9761,3.9807,3.9825,3.957,3.9567,3.9565,3.9564,0,0,3.9685,3.9672,3.9692,3.9696,3.9694,3.9726,3.9781,3.9805,3.9827,3.9839,3.9884,3.9934,3.9889,3.9902,3.9872,3.9915,4.0033,3.9862,3.9861,3.9892,4.0152,4.0187,4.021,4.0004,4.0007,4.001,4.0151,0,3.9828,3.9919,3.9882,3.9977,4.0014,3.995,3.9997,4.0002,3.9988,4.0018,4.0003,4.0039,3.9978,3.9984,4.0025,4.0011,4.0085,4.0,4.0044,4.0047,4.0043,4.0234,4.0271,4.0404,4.0169,4.0172,4.0174,0,4.0007,4.0024,4.0123,4.0113,4.0127,4.0171,4.019,4.022,4.0224,4.0211,4.0224,4.0185,4.0238,4.0165,4.0238,4.0181,4.0197,4.0193,4.0197,4.0199,4.0117,4.0239,4.0446,4.0466,4.0202,4.02,4.0198,0,4.0152,4.0201,4.0265,4.0271,4.0263,4.0294,4.0292,4.0292,4.0309,4.0327,4.0337,4.0361,4.0374,4.0394,4.0362,4.0312,4.0439,4.0364,4.0429,4.043,4.0458,4.0456,4.0669,4.0471,4.0471,4.0471,4.047,0,4.0315,4.0378,4.033,4.037,4.0438,4.0395,4.0464,4.0455,4.0455,4.0492,4.0439,4.0476,4.0432,4.0464,4.044,4.0503,4.051,4.05,4.0493,4.0504,4.0505,4.0513,4.0502,4.0476,4.0475,4.0474,4.0473,0,4.0489,4.0459,4.0525,4.0511,4.0509,4.056,4.0548,4.0585,4.0567,4.0615,4.0624,4.0596,4.0631,4.0601,4.0636,4.0619,4.0703,4.0683,4.0701,4.0695,4.0762,4.0755,4.0986,4.1013,4.08,4.0802,4.0804,0,4.0593,4.064,4.063,4.0651,4.0652,4.0686,4.0702,4.0662,4.0682,4.0689,4.0725,4.0755,4.0777,4.0836,4.082,4.0846,4.0825,4.0904,4.0829,4.0838,4.0824,4.0821,4.0825,4.0919,4.0921,4.0924,4.0925,0,4.0782,4.0765,4.0791,4.0812,4.0833,4.0847,4.0858,4.0878,4.0837,4.0862,4.0896,4.0913,4.0948,4.0978,4.0999,4.0997,4.0955,4.0949,4.0965,4.0977,4.0984,4.0979,4.0741,4.0944,4.0942,4.0941,4.094,4.0939,4.0923,4.0961,4.096,4.099,4.0993,4.1004,4.1037,4.1023,4.1051,4.1075,4.105,4.1092,4.1094,4.1117,4.1121,4.1153,4.112,4.1144,4.115,4.1156,4.1165,4.0981,4.1157,4.1156,4.1156,4.1155,4.1155,0,4.1107,4.1103,4.1132,4.1147,4.1171,4.1129,4.1138,4.1161,4.1198,4.1203,4.1226,4.1265,4.1295,4.128,4.1306,4.1335,4.1316,4.1342,4.1339,4.1339,4.1193,4.1176,4.1357,4.1357,4.1357,4.1357,4.1357,4.1357,4.1206,4.1267,4.125,4.1312,4.1308,4.1348,4.1357,4.1366,4.137,4.1416,4.144,4.143,4.1428,4.1453,4.1478,4.1473,4.1484,4.1518,4.1506,4.137,4.135,4.1331,4.1314,4.1521,4.1521,4.1648,4.1649,4.165]},{"header":{"parameterUnit":"m.s-1","parameterCategory":1,"la1":30.2991,"la2":30.254,"lo1":-89.0895,"lo2":-89.0444,"dy":0.0017,"dx":0.0017,"nx":28,"ny":28,"refTime":"2025-03-19T03:00:00:Z","depth":0,"parameterNumber":3,"parameterNumberName":"V-component_of_WINDS"},"data":[0,0,0,0,0,0,0,0,0,0,0,0,0,0,0,0,0,0,0,0,0,0,0,0,0,0,0,0,0,0,0,0,0,0,0,0,0,0,0,0,0,0,0,0,0,0,0,0,0,0,0,0,0,0,0,0,0,0,5.9242,5.9244,0,5.9428,5.943,5.9432,5.9445,5.9443,5.9441,5.9439,5.9621,5.9627,5.9634,0,0,0,0,0,0,0,0,0,0,0,0,0,5.8889,5.8895,5.9242,5.9244,5.9247,5.9428,5.943,5.9433,5.9446,5.9443,5.9441,5.9438,5.9618,5.9626,5.9634,0,0,0,0,0,0,0,0,0,0,0,0,0,5.9055,5.8897,5.9242,5.9275,5.928,5.9427,5.943,5.9433,5.9446,5.9443,5.944,5.9437,5.9616,5.9625,5.9635,5.9759,0,0,5.9666,5.9671,0,0,0,0,0,0,0,0,5.9045,5.9068,5.9268,5.9273,5.9279,5.9411,5.9372,5.9542,5.9447,5.9383,5.9439,5.9436,5.9553,5.9568,5.9609,5.9767,5.9775,5.9667,5.9673,5.9678,5.968,0,0,0,0,0,0,0,5.9034,5.906,5.9315,5.9271,5.9278,5.9278,5.9298,5.9404,5.9482,5.9388,5.939,5.9412,5.9555,5.9599,5.9613,5.9778,5.9667,5.9676,5.9682,5.9686,6.0044,6.0047,0,0,0,0,0,0,5.9017,5.905,5.9309,5.9321,5.9153,5.9287,5.9309,5.9371,5.9481,5.9495,5.9414,5.9412,5.9583,5.9601,5.962,5.977,5.9678,5.9687,5.9693,6.0041,6.0045,6.0049,0,0,0,0,0,0,5.901,5.904,5.9302,5.9186,5.922,5.9296,5.9365,5.9376,5.9421,5.9501,5.9514,5.9446,5.9582,5.9605,5.9724,5.9777,5.9692,5.9701,6.0037,6.0042,6.0047,6.0073,0,0,0,0,0,0,5.9,5.9038,5.9088,5.9187,5.9226,5.9407,5.9369,5.9382,5.9439,5.9438,5.9534,5.9547,5.9581,5.9709,5.9734,5.9789,5.9709,6.0032,6.0039,6.0045,6.0068,6.0079,6.0088,0,0,0,0,0,5.8987,5.9086,5.909,5.9122,5.9291,5.941,5.9431,5.9471,5.9444,5.9493,5.9544,5.9544,5.9767,5.9721,5.975,5.9808,6.0029,6.0037,6.0045,6.0064,6.0077,6.0088,0,0,0,0,0,0,5.8988,5.91,5.9106,5.9241,5.9316,5.9412,5.9476,5.9484,5.9566,5.9561,5.9604,5.9625,5.9742,5.9787,5.9734,5.9932,5.9894,5.9908,5.9899,5.9912,5.9922,5.9909,5.9717,0,0,0,0,0,5.9005,5.9096,5.9187,5.9297,5.9335,5.9399,5.9452,5.9476,5.9555,5.9586,5.9645,5.9719,5.9805,5.9861,5.9945,6.0074,6.0094,6.0128,6.0138,6.0146,6.0157,6.0227,6.0243,6.0074,6.0074,6.0074,0,0,5.9039,5.9111,5.9165,5.9299,5.936,5.945,5.9425,5.9522,5.9588,5.9599,5.9716,5.9762,5.9846,5.9971,6.0028,6.0011,6.0208,6.0156,6.0161,6.0169,6.0236,6.0252,6.0266,6.0079,6.0078,6.0078,0,0,5.9147,5.9212,5.9311,5.9373,5.9466,5.9508,5.9531,5.9626,5.9658,5.9776,5.9786,5.9863,6.0012,6.0071,6.0121,6.025,6.0252,6.0275,6.0327,6.0395,6.0408,6.042,6.0464,6.048,6.0286,6.0287,6.0287,0,5.9177,5.9317,5.9359,5.9456,5.9514,5.9531,5.9629,5.9686,5.98,5.9838,5.9818,6.0004,6.0062,6.02,6.0231,6.0271,6.0297,6.0265,6.0403,6.0415,6.0427,6.047,6.0487,6.0289,6.0288,6.0288,6.0288,0,5.9348,5.9444,5.9511,5.9625,5.969,5.9787,5.9841,5.9901,5.9918,5.9961,6.0079,6.0149,6.0247,6.0281,6.0299,6.0421,6.0407,6.0395,6.0358,6.0445,6.0486,6.0503,6.0292,6.0291,6.029,6.029,0,0,5.9463,5.9599,5.9623,5.9675,5.9778,5.9852,5.9947,6.0046,6.0095,6.0173,6.0253,6.0377,6.0366,6.0422,6.0446,6.0505,6.0601,6.0485,6.0487,6.0503,6.0737,6.0746,6.0764,6.0603,6.0606,6.0609,6.073,0,5.9582,5.9758,5.9799,5.9947,6.0035,6.0051,6.0134,6.0205,6.0247,6.0324,6.0368,6.0456,6.0435,6.0469,6.0528,6.0577,6.0648,6.0568,6.0674,6.0678,6.0653,6.0786,6.0796,6.0907,6.0746,6.0749,6.0751,0,5.9746,5.9831,5.9989,6.008,6.0118,6.0193,6.0286,6.0361,6.0439,6.0465,6.0528,6.0545,6.0641,6.0599,6.0731,6.0676,6.0721,6.0751,6.0756,6.0767,6.0719,6.08,6.0944,6.096,6.0777,6.0775,6.0773,0,5.9813,5.9966,6.0081,6.0124,6.0233,6.0285,6.0332,6.0409,6.0465,6.0544,6.058,6.0668,6.0717,6.0783,6.0822,6.0788,6.095,6.0912,6.0972,6.0971,6.1005,6.1003,6.1158,6.1035,6.1035,6.1034,6.1034,0,5.9942,6.0038,6.0112,6.0183,6.029,6.0333,6.0437,6.0483,6.0551,6.0628,6.0645,6.0716,6.0764,6.0841,6.0872,6.0975,6.0996,6.1018,6.1025,6.1016,6.1014,6.1046,6.1039,6.1039,6.1038,6.1037,6.1036,0,6.0036,6.009,6.0216,6.0309,6.0335,6.0409,6.0487,6.0554,6.0596,6.0693,6.0718,6.0782,6.0873,6.0919,6.1031,6.1051,6.1168,6.117,6.1142,6.1145,6.1202,6.1196,6.1384,6.141,6.127,6.1271,6.1272,0,6.0115,6.019,6.0292,6.0346,6.0396,6.0483,6.054,6.0585,6.0644,6.0738,6.0793,6.0886,6.0962,6.1106,6.116,6.1245,6.1249,6.1309,6.1262,6.1251,6.1249,6.1244,6.1251,6.1317,6.1319,6.132,6.1321,0,6.0249,6.0272,6.0356,6.045,6.0519,6.0594,6.0668,6.071,6.0766,6.083,6.0925,6.0985,6.11,6.119,6.128,6.1324,6.1331,6.1335,6.1353,6.1345,6.1326,6.1336,6.1165,6.133,6.1329,6.1329,6.1328,6.1328,6.0337,6.0404,6.0487,6.0579,6.064,6.0708,6.0775,6.0826,6.0907,6.1007,6.1027,6.1127,6.12,6.1321,6.1369,6.1445,6.1431,6.1458,6.1465,6.147,6.1473,6.1314,6.1461,6.1461,6.146,6.146,6.146,0,6.0472,6.0526,6.0611,6.0714,6.0786,6.079,6.087,6.093,6.1019,6.1089,6.1164,6.1271,6.1359,6.142,6.1507,6.1556,6.1561,6.1578,6.1574,6.1584,6.148,6.1456,6.1572,6.1572,6.1572,6.1572,6.1572,6.1572,6.055,6.0663,6.0695,6.0836,6.0888,6.0989,6.1035,6.1096,6.1153,6.1273,6.1347,6.1387,6.1453,6.1545,6.1624,6.1639,6.167,6.1687,6.1701,6.1603,6.1592,6.158,6.1557,6.1693,6.1693,6.1799,6.18,6.1801]}]]